GSAT-17

Last updated on Sun Dec 14 2025 00:02:36 GMT+0000 (Coordinated Universal Time)

1 42815U 17040B 25347.15076133 -.00000244 00000+0 00000+0 0 9998 2 42815 0.0368 131.4135 0007088 129.3535 329.1039 1.00272436 30924
UTC large
Height (km)
Speed (km/s)
/
Latitude / Longitude
Inclination (degrees)
Orbital Period (minutes)
Azimuth
Elevation
Range (km)
Doppler Factor

Next 0 passes for location: London (51.5072 / 0.1276)

Sorry there are no passes over London.